Location: Focicchia
(42.2496°N, 9.2935°E)
Time: 21:47:47
(UTC+00:00)

Cosmos 1680 Rocket - Pass Details

Date: 07 June 2020
Orbit: 759 x 782 km, 74.1° (Epoch: 14 July)

Event Time Altitude Azimuth Distance (km) Brightness Sun altitude
Rises 03:07:21 0° 189° (S) 3,222 6.3 -6.7°
Reaches altitude 10° 03:09:43 10° 187° (S) 2,303 5.6 -6.4°
Maximum altitude 03:14:53 65° 106° (ESE) 851 4.0 -5.6°
Drops below altitude 10° 03:20:08 10° 26° (NNE) 2,334 7.2 -4.9°
Sets 03:22:33 0° 23° (NNE) 3,269 7.9 -4.5°
